This is the latest recevied weather packets stored in our database for station/object N6GPM. If no packets are shown the sender has not sent any weather packets the latest 10 day(s).
| Time | Temp. | Humidity | Pressure | Rain* | Wind** | Luminosity | Snow |
|---|---|---|---|---|---|---|---|
| 1777852782 | 17.22° C | 68% | 1015.3 hPa | 0 mm | - | 366 W/m² | - |
| 1777852480 | 17.78° C | 69% | 1015.4 hPa | 0 mm | - | 116 W/m² | - |
| 1777852177 | 17.78° C | 69% | 1015 hPa | 0 mm | - | 414 W/m² | - |
| 1777851875 | 17.78° C | 68% | 1015.5 hPa | 0 mm | - | 327 W/m² | - |
| 1777851573 | 17.22° C | 69% | 1015.4 hPa | 0 mm | - | 171 W/m² | - |
| 1777851269 | 17.78° C | 70% | 1015.7 hPa | 0 mm | - | 168 W/m² | - |
| 1777850965 | 17.78° C | 68% | 1015.4 hPa | 0 mm | - | 161 W/m² | - |
| 1777850662 | 17.78° C | 70% | 1015.5 hPa | 0 mm | - | 135 W/m² | - |
| 1777850360 | 17.78° C | 70% | 1015.4 hPa | 0 mm | - | 475 W/m² | - |
| 1777850057 | 17.78° C | 70% | 1015.6 hPa | 0 mm | - | 566 W/m² | - |
| 1777849754 | 18.89° C | 68% | 1015.5 hPa | 0 mm | - | 196 W/m² | - |
| 1777849450 | 18.33° C | 67% | 1015.7 hPa | 0 mm | - | 450 W/m² | - |
| 1777849148 | 18.33° C | 67% | 1015.4 hPa | 0 mm | - | 547 W/m² | - |
| 1777848844 | 18.33° C | 68% | 1015.7 hPa | 0 mm | - | 679 W/m² | - |
| 1777848540 | 18.89° C | 67% | 1015.6 hPa | 0 mm | - | 258 W/m² | - |
| 1777848237 | 18.89° C | 67% | 1015.7 hPa | 0 mm | - | 701 W/m² | - |
| 1777847935 | 18.89° C | 67% | 1015.5 hPa | 0 mm | - | 278 W/m² | - |
| 1777847633 | 18.89° C | 68% | 1015.7 hPa | 0 mm | - | 281 W/m² | - |
| 1777847328 | 18.89° C | 66% | 1015.9 hPa | 0 mm | - | 426 W/m² | - |
| 1777847027 | 19.44° C | 67% | 1016 hPa | 0 mm | - | 269 W/m² | - |
| 1777846724 | 19.44° C | 66% | 1016.1 hPa | 0 mm | - | 182 W/m² | - |
| 1777846423 | 19.44° C | 65% | 1015.9 hPa | 0 mm | - | 150 W/m² | - |
| 1777846118 | 18.89° C | 66% | 1015.9 hPa | 0 mm | - | 239 W/m² | - |
| 1777845816 | 19.44° C | 66% | 1016 hPa | 0 mm | - | 248 W/m² | - |
| 1777845512 | 20° C | 64% | 1016.1 hPa | 0 mm | - | 252 W/m² | - |
* Rain latest hour (hover to see other rain measurements)
** Current wind speed in m/s (hover to see current wind gust speed)